Weather History for LEPP - October, 2013

Change the Weather History Date:

Wednesday, October 23, 2013

  Actual Average Record
Temperature  
Mean Temperature 63 °F -  
Max Temperature 73 °F 55 °F 78 °F (1996)
Min Temperature 53 °F 42 °F 38 °F (2014)
Degree Days  
Heating Degree Days 2    
Growing Degree Days 13 (Base 50)    
Moisture  
Dew Point 51 °F    
Average Humidity 66    
Maximum Humidity 94    
Minimum Humidity 38    
Precipitation  
Precipitation 0.00 in - - ()
Sea Level Pressure  
Sea Level Pressure 29.97 in    
Wind  
Wind Speed 4 mph ()    
Max Wind Speed 16 mph    
Max Gust Speed -    
Visibility 6.2 miles    
Events      
Averages and records for this station are not official NWS values.
T = Trace of Precipitation, MM = Missing Value Source: Averaged Metar Reports

Daily Weather History Graph

Daily Weather History Graph

Search for Another Location

Airport or City:

Trip Planner

Search our weather history database for the weather conditions in past years. The results will help you decide how hot, cold, wet, or windy it might be!

Date:

Astronomy

Oct. 23, 2013 Rise Set
Actual Time 8:29 AM CEST 7:11 PM CEST
Civil Twilight 8:00 AM CEST 7:40 PM CEST
Nautical Twilight 7:27 AM CEST 8:13 PM CEST
Astronomical Twilight 6:54 AM CEST 8:46 PM CEST
Moon 10:26 PM CEST (10/23) 12:38 PM CEST (10/23)
Length of Visible Light 11h 39m
Length of Day
10h 42m
Waning Gibbous, 81% of the Moon is Illuminated
Oct 23
Waning Gibbous
Oct 27
Last Quarter
Nov 3
New
Nov 10
First Quarter
Nov 17
Full

Hourly Weather History & Observations

Time (CEST) Temp. Dew Point Humidity Pressure Visibility Wind Dir Wind Speed Gust Speed Precip Events Conditions
12:00 AM 64.4 °F 55.4 °F 73% 29.80 in 6.2 mi South 16.1 mph - N/A   Scattered Clouds
5:30 AM 59.0 °F 51.8 °F 77% 29.86 in 6.2 mi SE 3.5 mph - N/A   Scattered Clouds
6:00 AM 59.0 °F 51.8 °F 77% 29.89 in 6.2 mi Variable 2.3 mph - N/A   Partly Cloudy
6:30 AM 59.0 °F 51.8 °F 77% 29.89 in 6.2 mi Variable 1.2 mph - N/A   Scattered Clouds
7:00 AM 57.2 °F 51.8 °F 82% 29.89 in 6.2 mi Calm Calm - N/A   Scattered Clouds
7:30 AM 55.4 °F 51.8 °F 88% 29.92 in 6.2 mi Calm Calm - N/A   Scattered Clouds
8:00 AM 53.6 °F 51.8 °F 94% 29.92 in 6.2 mi Calm Calm - N/A   Partly Cloudy
8:30 AM 55.4 °F 53.6 °F 94% 29.92 in 6.2 mi Calm Calm - N/A   Scattered Clouds
9:00 AM 53.6 °F 51.8 °F 94% 29.95 in 6.2 mi Variable 1.2 mph - N/A   Scattered Clouds
9:30 AM 55.4 °F 53.6 °F 94% 29.95 in 6.2 mi NNW 2.3 mph - N/A   Scattered Clouds
10:00 AM 59.0 °F 51.8 °F 77% 29.98 in 6.2 mi Variable 2.3 mph - N/A   Mostly Cloudy
10:30 AM 62.6 °F 53.6 °F 72% 29.98 in 6.2 mi SSW 1.2 mph - N/A   Mostly Cloudy
11:00 AM 64.4 °F 53.6 °F 68% 29.98 in 6.2 mi East 6.9 mph - N/A   Partly Cloudy
11:30 AM 64.4 °F 55.4 °F 73% 29.98 in 6.2 mi ENE 3.5 mph - N/A   Partly Cloudy
12:00 PM 66.2 °F 53.6 °F 64% 29.98 in 6.2 mi Variable 1.2 mph - N/A   Partly Cloudy
12:30 PM 66.2 °F 55.4 °F 68% 29.98 in 6.2 mi SSW 4.6 mph - N/A   Partly Cloudy
1:00 PM 68.0 °F 53.6 °F 60% 29.98 in 6.2 mi SSW 5.8 mph - N/A   Scattered Clouds
1:30 PM 69.8 °F 53.6 °F 56% 29.98 in 6.2 mi South 4.6 mph - N/A   Scattered Clouds
2:00 PM 69.8 °F 51.8 °F 53% 29.98 in 6.2 mi South 8.1 mph - N/A   Scattered Clouds
2:30 PM 69.8 °F 48.2 °F 46% 29.98 in 6.2 mi SW 10.4 mph - N/A   Scattered Clouds
3:00 PM 71.6 °F 48.2 °F 43% 29.98 in 6.2 mi SSW 9.2 mph - N/A   Scattered Clouds
3:30 PM 73.4 °F 46.4 °F 38% 29.95 in 6.2 mi West 3.5 mph - N/A   Scattered Clouds
4:00 PM 71.6 °F 46.4 °F 41% 29.95 in 6.2 mi SW 3.5 mph - N/A   Partly Cloudy
4:30 PM 71.6 °F 48.2 °F 43% 29.98 in 6.2 mi South 6.9 mph - N/A   Partly Cloudy
5:00 PM 73.4 °F 48.2 °F 41% 29.98 in 6.2 mi South 6.9 mph - N/A   Partly Cloudy
5:30 PM 71.6 °F 48.2 °F 43% 29.98 in 6.2 mi SSW 8.1 mph - N/A   Partly Cloudy
6:00 PM 71.6 °F 48.2 °F 43% 29.98 in 6.2 mi South 8.1 mph - N/A   Partly Cloudy
6:30 PM 69.8 °F 50.0 °F 49% 29.98 in 6.2 mi SSW 4.6 mph - N/A   Partly Cloudy
7:00 PM 66.2 °F 50.0 °F 56% 29.98 in 6.2 mi South 4.6 mph - N/A   Scattered Clouds
7:30 PM 66.2 °F 51.8 °F 60% 29.98 in 6.2 mi Variable 2.3 mph - N/A   Partly Cloudy
8:00 PM 64.4 °F 50.0 °F 59% 30.01 in 6.2 mi SE 6.9 mph - N/A   Partly Cloudy
8:30 PM 62.6 °F 51.8 °F 68% 30.01 in 6.2 mi Variable 2.3 mph - N/A   Partly Cloudy
9:00 PM 60.8 °F 50.0 °F 68% 30.01 in 6.2 mi SE 6.9 mph - N/A   Partly Cloudy
9:30 PM 60.8 °F 51.8 °F 72% 30.01 in 6.2 mi South 3.5 mph - N/A   Partly Cloudy
10:00 PM 59.0 °F 51.8 °F 77% 30.04 in 6.2 mi NW 3.5 mph - N/A   Partly Cloudy
10:30 PM 59.0 °F 50.0 °F 72% 30.04 in 6.2 mi Variable 1.2 mph - N/A   Partly Cloudy
11:00 PM 55.4 °F 50.0 °F 82% 30.04 in 6.2 mi East 5.8 mph - N/A   Partly Cloudy
11:30 PM 57.2 °F 50.0 °F 77% 30.04 in 6.2 mi South 2.3 mph - N/A   Partly Cloudy